Location: River House Observatory
(37.8577°N, 76.3548°W)
Time: 21:44:41
(UTC-05:00)

NOSS 3-1 (C) - Visible Passes

Search period start: 26 November 2014 00:00
Search period end: 06 December 2014 00:00
Orbit: 888 x 1321 km, 63.4° (Epoch: 24 November)

Date Brightness Start Highest point End Pass type
(mag) Time Alt. Az. Time Alt. Az. Time Alt. Az.
29 Nov 6.1 20:09:15 10° N 20:09:35 11° N 20:09:35 11° N visible
30 Nov 5.8 19:24:37 10° N 19:25:52 13° N 19:25:52 13° N visible
01 Dec 5.7 18:40:26 10° N 18:42:10 11° NNE 18:42:10 11° NNE visible
01 Dec 6.1 20:29:02 10° NNW 20:29:35 12° NNW 20:29:35 12° NNW visible
02 Dec 5.7 19:44:10 10° NNW 19:45:56 16° N 19:45:56 16° N visible
03 Dec 5.5 18:59:25 10° N 19:02:20 17° NNE 19:02:20 17° NNE visible
03 Dec 6.2 20:49:07 10° NNW 20:49:45 13° NNW 20:49:45 13° NNW visible
04 Dec 5.5 18:14:56 10° N 18:18:24 14° NNE 18:18:47 14° NNE visible
04 Dec 5.6 20:04:03 10° NNW 20:06:12 20° NNW 20:06:12 20° NNW visible
05 Dec 5.7 17:32:05 10° NNE 17:32:12 10° NNE 17:32:20 10° NNE visible
05 Dec 5.2 19:19:07 10° NNW 19:22:44 25° N 19:22:44 25° N visible
05 Dec 6.3 21:09:34 10° NW 21:10:10 13° NW 21:10:10 13° NW visible
